Location: Azul
(36.7830°S, 59.8500°W)
Time: 01:45:48
(UTC-03:00)

ISS - Pass Details

Date: 24 May 2019
Orbit: 407 x 410 km, 51.6° (Epoch: 23 May)

Event Time Altitude Azimuth Distance (km) Brightness Sun altitude
Rises 07:23:56 0° 304° (NW) 2,342 -0.3 -7.0°
Reaches altitude 10° 07:26:02 10° 300° (WNW) 1,486 -1.3 -6.6°
Maximum altitude 07:29:20 61° 219° (SW) 480 -3.7 -6.0°
Drops below altitude 10° 07:32:41 10° 137° (SE) 1,501 -0.7 -5.4°
Sets 07:34:48 0° 133° (SE) 2,370 0.4 -5.0°
